• In Deutschland
  • Länderverzeichnis
  • Für 7 Tage
  • Wassertemperatur
  • Satellitenkarten
  • Wetterkarte
  • Widgets
  • user-avatar
    Anmelden

    Stündliche Wetter Darwin

    Heute, 27 Mai, Samstag

    Zeit Temperatur Niederschläge Wind Luftdruck Luftfeuchtigkeit
    00:00 +26°C° 0 mm 3 m/S 759 mmHg 68%
    01:00 +26°C° 0 mm 4 m/S 759 mmHg 69%
    02:00 +26°C° 0 mm 4 m/S 759 mmHg 70%
    03:00 +26°C° 0 mm 4 m/S 758 mmHg 74%
    04:00 +26°C° 0 mm 4 m/S 759 mmHg 76%
    05:00 +25°C° 0 mm 5 m/S 759 mmHg 77%
    06:00 +25°C° 0 mm 5 m/S 759 mmHg 78%
    07:00 +26°C° 0 mm 6 m/S 759 mmHg 68%
    08:00 +27°C° 0 mm 6 m/S 759 mmHg 59%
    09:00 +29°C° 0 mm 7 m/S 759 mmHg 46%
    10:00 +32°C° 0 mm 6 m/S 759 mmHg 41%
    11:00 +33°C° 0 mm 6 m/S 759 mmHg 35%
    12:00 +35°C° 0 mm 6 m/S 759 mmHg 29%
    13:00 +35°C° 0 mm 5 m/S 758 mmHg 29%
    14:00 +35°C° 0 mm 5 m/S 758 mmHg 28%
    15:00 +36°C° 0 mm 5 m/S 757 mmHg 28%
    16:00 +34°C° 0 mm 4 m/S 757 mmHg 36%
    17:00 +31°C° 0 mm 3 m/S 757 mmHg 43%
    18:00 +29°C° 0 mm 3 m/S 757 mmHg 50%
    19:00 +28°C° 0 mm 3 m/S 758 mmHg 52%
    20:00 +28°C° 0 mm 3 m/S 758 mmHg 54%
    21:00 +27°C° 0 mm 3 m/S 758 mmHg 55%
    22:00 +27°C° 0 mm 3 m/S 758 mmHg 55%
    23:00 +28°C° 0 mm 4 m/S 759 mmHg 54%

    Morgen, 28 Mai, Sonntag

    Zeit Temperatur Niederschläge Wind Luftdruck Luftfeuchtigkeit
    00:00 +28°C° 0 mm 4 m/S 759 mmHg 54%
    01:00 +27°C° 0 mm 5 m/S 758 mmHg 56%
    02:00 +27°C° 0 mm 5 m/S 758 mmHg 58%
    03:00 +26°C° 0 mm 6 m/S 758 mmHg 60%
    04:00 +26°C° 0 mm 6 m/S 758 mmHg 63%
    05:00 +24°C° 0 mm 6 m/S 758 mmHg 65%
    06:00 +23°C° 0 mm 6 m/S 758 mmHg 67%
    07:00 +26°C° 0 mm 6 m/S 759 mmHg 62%
    08:00 +27°C° 0 mm 7 m/S 759 mmHg 57%
    09:00 +29°C° 0 mm 7 m/S 759 mmHg 51%
    10:00 +30°C° 0 mm 7 m/S 759 mmHg 46%
    11:00 +33°C° 0 mm 7 m/S 759 mmHg 41%
    12:00 +34°C° 0 mm 6 m/S 758 mmHg 35%
    13:00 +35°C° 0 mm 6 m/S 758 mmHg 35%
    14:00 +35°C° 0 mm 5 m/S 757 mmHg 34%
    15:00 +36°C° 0 mm 5 m/S 757 mmHg 34%
    16:00 +34°C° 0 mm 4 m/S 757 mmHg 40%
    17:00 +31°C° 0 mm 3 m/S 757 mmHg 46%
    18:00 +29°C° 0 mm 3 m/S 757 mmHg 52%
    19:00 +29°C° 0 mm 3 m/S 758 mmHg 53%
    20:00 +28°C° 0 mm 3 m/S 758 mmHg 53%
    21:00 +28°C° 0 mm 3 m/S 759 mmHg 54%
    22:00 +28°C° 0 mm 4 m/S 759 mmHg 54%
    23:00 +28°C° 0 mm 5 m/S 759 mmHg 55%

    übermorgen, 29 Mai, Montag

    Zeit Temperatur Niederschläge Wind Luftdruck Luftfeuchtigkeit
    00:00 +28°C° 0 mm 6 m/S 759 mmHg 55%
    01:00 +27°C° 0 mm 6 m/S 759 mmHg 54%
    02:00 +27°C° 0 mm 6 m/S 759 mmHg 54%
    03:00 +26°C° 0 mm 6 m/S 759 mmHg 53%
    04:00 +26°C° 0 mm 7 m/S 759 mmHg 56%
    05:00 +24°C° 0 mm 7 m/S 759 mmHg 58%
    06:00 +24°C° 0 mm 7 m/S 759 mmHg 61%
    07:00 +26°C° 0 mm 7 m/S 759 mmHg 56%
    08:00 +28°C° 0 mm 8 m/S 760 mmHg 52%
    09:00 +29°C° 0 mm 9 m/S 760 mmHg 48%
    10:00 +32°C° 0 mm 8 m/S 760 mmHg 44%
    11:00 +33°C° 0 mm 8 m/S 759 mmHg 40%
    12:00 +34°C° 0 mm 7 m/S 759 mmHg 36%
    13:00 +34°C° 0 mm 6 m/S 758 mmHg 35%
    14:00 +35°C° 0 mm 6 m/S 758 mmHg 35%
    15:00 +35°C° 0 mm 5 m/S 757 mmHg 35%
    16:00 +33°C° 0 mm 5 m/S 757 mmHg 39%
    17:00 +32°C° 0 mm 4 m/S 758 mmHg 43%
    18:00 +29°C° 0 mm 4 m/S 758 mmHg 46%
    19:00 +29°C° 0 mm 4 m/S 759 mmHg 44%
    20:00 +28°C° 0 mm 5 m/S 759 mmHg 42%
    21:00 +28°C° 0 mm 6 m/S 760 mmHg 39%
    22:00 +27°C° 0 mm 6 m/S 760 mmHg 40%
    23:00 +27°C° 0 mm 7 m/S 760 mmHg 40%

    30 Mai, Dienstag

    Zeit Temperatur Niederschläge Wind Luftdruck Luftfeuchtigkeit
    00:00 +26°C° 0 mm 8 m/S 760 mmHg 41%
    01:00 +24°C° 0 mm 7 m/S 760 mmHg 43%
    02:00 +23°C° 0 mm 7 m/S 760 mmHg 45%
    03:00 +23°C° 0 mm 7 m/S 759 mmHg 47%
    04:00 +22°C° 0 mm 7 m/S 760 mmHg 47%
    05:00 +22°C° 0 mm 7 m/S 760 mmHg 47%
    06:00 +22°C° 0 mm 7 m/S 760 mmHg 47%
    07:00 +23°C° 0 mm 8 m/S 761 mmHg 41%
    08:00 +24°C° 0 mm 8 m/S 761 mmHg 34%
    09:00 +27°C° 0 mm 9 m/S 762 mmHg 28%
    10:00 +29°C° 0 mm 8 m/S 761 mmHg 26%
    11:00 +31°C° 0 mm 8 m/S 761 mmHg 23%
    12:00 +33°C° 0 mm 8 m/S 761 mmHg 21%
    13:00 +33°C° 0 mm 7 m/S 760 mmHg 21%
    14:00 +34°C° 0 mm 7 m/S 759 mmHg 21%
    15:00 +34°C° 0 mm 6 m/S 759 mmHg 21%
    16:00 +32°C° 0 mm 5 m/S 759 mmHg 24%
    17:00 +30°C° 0 mm 5 m/S 759 mmHg 28%
    18:00 +28°C° 0 mm 5 m/S 759 mmHg 31%
    19:00 +27°C° 0 mm 5 m/S 760 mmHg 31%
    20:00 +26°C° 0 mm 5 m/S 760 mmHg 31%
    21:00 +24°C° 0 mm 6 m/S 761 mmHg 31%
    22:00 +24°C° 0 mm 6 m/S 761 mmHg 30%
    23:00 +23°C° 0 mm 6 m/S 761 mmHg 30%

    31 Mai, Mittwoch

    Zeit Temperatur Niederschläge Wind Luftdruck Luftfeuchtigkeit
    00:00 +23°C° 0 mm 7 m/S 761 mmHg 30%
    01:00 +22°C° 0 mm 7 m/S 760 mmHg 29%
    02:00 +22°C° 0 mm 7 m/S 760 mmHg 29%
    03:00 +22°C° 0 mm 7 m/S 760 mmHg 29%
    04:00 +21°C° 0 mm 7 m/S 760 mmHg 28%
    05:00 +21°C° 0 mm 7 m/S 760 mmHg 27%
    06:00 +21°C° 0 mm 7 m/S 761 mmHg 26%
    07:00 +22°C° 0 mm 7 m/S 761 mmHg 27%
    08:00 +22°C° 0 mm 8 m/S 762 mmHg 28%
    09:00 +23°C° 0 mm 8 m/S 762 mmHg 29%
    10:00 +24°C° 0 mm 8 m/S 762 mmHg 28%
    11:00 +27°C° 0 mm 7 m/S 761 mmHg 27%
    12:00 +28°C° 0 mm 7 m/S 761 mmHg 26%
    13:00 +29°C° 0 mm 7 m/S 760 mmHg 26%
    14:00 +29°C° 0 mm 6 m/S 759 mmHg 26%
    15:00 +30°C° 0 mm 6 m/S 759 mmHg 26%
    16:00 +29°C° 0 mm 5 m/S 759 mmHg 28%
    17:00 +27°C° 0 mm 5 m/S 759 mmHg 31%
    18:00 +26°C° 0 mm 5 m/S 760 mmHg 33%
    19:00 +26°C° 0 mm 5 m/S 760 mmHg 33%
    20:00 +26°C° 0 mm 6 m/S 761 mmHg 32%
    21:00 +24°C° 0 mm 6 m/S 761 mmHg 32%
    22:00 +24°C° 0 mm 6 m/S 761 mmHg 32%
    23:00 +24°C° 0 mm 6 m/S 761 mmHg 32%

    1 Juni, Donnerstag

    Zeit Temperatur Niederschläge Wind Luftdruck Luftfeuchtigkeit
    00:00 +23°C° 0 mm 6 m/S 761 mmHg 32%
    01:00 +23°C° 0 mm 6 m/S 761 mmHg 32%
    02:00 +23°C° 0 mm 6 m/S 760 mmHg 32%
    03:00 +22°C° 0 mm 6 m/S 760 mmHg 32%
    04:00 +22°C° 0 mm 7 m/S 760 mmHg 32%
    05:00 +22°C° 0 mm 7 m/S 760 mmHg 32%
    06:00 +22°C° 0 mm 7 m/S 761 mmHg 33%
    07:00 +23°C° 0 mm 7 m/S 761 mmHg 33%
    08:00 +23°C° 0 mm 8 m/S 761 mmHg 33%
    09:00 +24°C° 0 mm 8 m/S 762 mmHg 33%
    10:00 +27°C° 0 mm 7 m/S 761 mmHg 32%
    11:00 +28°C° 0 mm 7 m/S 761 mmHg 32%
    12:00 +30°C° 0 mm 6 m/S 760 mmHg 31%
    13:00 +30°C° 0 mm 6 m/S 760 mmHg 31%
    14:00 +32°C° 0 mm 5 m/S 759 mmHg 32%
    15:00 +33°C° 0 mm 5 m/S 758 mmHg 32%
    16:00 +30°C° 0 mm 5 m/S 759 mmHg 36%
    17:00 +29°C° 0 mm 5 m/S 759 mmHg 39%
    18:00 +28°C° 0 mm 5 m/S 760 mmHg 42%
    19:00 +27°C° 0 mm 5 m/S 760 mmHg 41%
    20:00 +26°C° 0 mm 6 m/S 761 mmHg 41%
    21:00 +26°C° 0 mm 6 m/S 761 mmHg 41%
    22:00 +26°C° 0 mm 7 m/S 761 mmHg 39%
    23:00 +26°C° 0 mm 7 m/S 761 mmHg 38%
    Mehr zeigen